Starlink 32414

operational
NORAD ID: 61667 Int'l Des: 2024-193 Owner: SPXS Country: US Constellation: starlink
LEOCIRCULAR

About Starlink 32414

Description loading...

Live Position

Loading 3D Globe...

Upcoming Passes

Altitude History

Altitude vs Time

uPlot chart will show altitude changes over time

Two-Line Element Set

1 61667U 24193G 25349.36736477 -.00020794 00000-0 -68992-3 0 9992
2 61667 53.1598 122.8820 0001763 71.0002 289.1189 15.30289165 63613
Epoch: Dec 15, 2025 • Age: 34 hours

Current Status

Altitude 493.7 km
Velocity 7.62 km/s
Sub-Earth Point -50.36°S, 7.89°W
Launch Date Oct 26, 2024
Age 1.1 years
Type internet

Technical Details

Classification Payload
Mass 730.00 kg
Dry Mass 700.00 kg
Total Mass 730.00 kg
Length 0.30 m
Diameter 4.10 m
Span 29.00 m
Shape Box + pan
Manufacturer SPXS
Bus Type Starlink V2M
Phase Status In Orbit
Owner/State SPXS/US

Large Constellations

Loading constellations...